This demonstration page uses our WeatherBlox Daily Observations layout. Learn more.

Left ArrowRight Arrow

Hourly Observations for December 18, 2017

Temp ( °F °C ) Dew Point ( °F °C ) Humidity (%) Winds ( mph kmh ) Pressure ( in mb ) Visibility ( mi km ) Precip ( " mm )
12:13 am 00:13 Cloudy with Mist and Fog 47 8.3 46 7.8 97 97 Calm 30.21 1023 6 10 0.00 0.00
12:53 am 00:53 Cloudy with Mist and Fog 47 8.3 47 8.3 100 100 Calm 30.16 1022 5 8 0.00 0.00
1:53 am 01:53 Cloudy with Mist and Fog 47 8.3 47 8.3 100 100 Calm 30.17 1022 5 8 0.00 0.00
2:24 am 02:24 Cloudy with Mist and Fog 47 8.3 47 8.3 100 100 Calm 30.21 1023 2 3 0.00 0.00
2:36 am 02:36 Cloudy with Mist and Fog 47 8.3 47 8.3 100 100 Calm 30.21 1023 2 3 0.00 0.00
2:53 am 02:53 Cloudy with Mist and Fog 47 8.3 47 8.3 100 100 Calm 30.18 1022 2 2 0.00 0.00
3:10 am 03:10 Cloudy with Mist and Fog 47 8.3 47 8.3 100 100 Calm 30.21 1023 2 2 0.00 0.00
3:53 am 03:53 Mostly Cloudy with Fog 47 8.3 47 8.3 100 100 Calm 30.16 1022 1 1 0.00 0.00
4:34 am 04:34 Mostly Cloudy with Fog 47 8.3 47 8.3 100 100 NNE 3 6 30.18 1022 1 1 0.00 0.00
4:53 am 04:53 Mostly Cloudy with Fog 47 8.3 47 8.3 100 100 Calm 30.16 1021 1 1 0.00 0.00
5:01 am 05:01 Mostly Cloudy with Fog 47 8.3 47 8.3 100 100 N 3 6 30.18 1022 0 0 0.00 0.00
5:53 am 05:53 Mostly Cloudy with Fog 47 8.3 47 8.3 100 100 Calm 30.17 1022 0 0 0.00 0.00
6:53 am 06:53 Mostly Cloudy with Fog 47 8.3 47 8.3 100 100 Calm 30.19 1022 0 0 0.00 0.00
7:53 am 07:53 Mostly Cloudy with Fog 47 8.3 47 8.3 100 100 Calm 30.19 1023 0 0 0.00 0.00
8:53 am 08:53 Mostly Cloudy with Fog 47 8.3 47 8.3 100 100 WNW 3 6 30.22 1023 0 0 0.00 0.00
9:45 am 09:45 Cloudy with Mist and Fog 49 9.4 49 9.4 100 100 Calm 30.21 1023 1 1 0.00 0.00
9:53 am 09:53 Cloudy with Mist and Fog 49 9.4 49 9.4 100 100 Calm 30.21 1023 2 2 0.00 0.00
10:26 am 10:26 Cloudy with Mist and Fog 50 10 50 10 100 100 WNW 3 6 30.21 1023 1 2 0.00 0.00
10:53 am 10:53 Cloudy with Mist and Fog 51 10.6 51 10.6 100 100 Calm 30.21 1023 5 8 0.00 0.00
11:06 am 11:06 Cloudy with Mist and Fog 52 11.1 52 11.1 100 100 Calm 30.21 1023 3 5 0.00 0.00
11:46 am 11:46 Cloudy with Mist and Fog 54 12.2 52 11.1 93 93 Calm 30.21 1023 3 5 0.00 0.00
11:53 am 11:53 Cloudy 54 12.2 53 11.7 97 97 Calm 30.20 1023 9 14 0.00 0.00
12:53 pm 12:53 Cloudy 56 13.3 53 11.7 90 90 SW 6 9 30.17 1022 9 14 0.00 0.00
1:37 pm 13:37 Mostly Cloudy 58 14.4 54 12.2 87 87 SSW 5 7 30.15 1021 10 16 0.00 0.00
1:53 pm 13:53 Cloudy 57 13.9 54 12.2 90 90 SSW 3 6 30.16 1021 10 16 0.00 0.00
2:53 pm 14:53 Mostly Sunny 59 15 55 12.8 87 87 Calm 30.15 1021 10 16 0.00 0.00
3:53 pm 15:53 Cloudy 61 16.1 55 12.8 81 81 Calm 30.16 1021 10 16 0.00 0.00
4:53 pm 16:53 Mostly Cloudy 60 15.6 55 12.8 84 84 NW 3 6 30.15 1021 10 16 0.00 0.00
5:53 pm 17:53 Mostly Cloudy 55 12.8 54 12.2 96 96 Calm 30.16 1021 10 16 0.00 0.00
6:53 pm 18:53 Clear 53 11.7 53 11.7 100 100 Calm 30.17 1022 9 14 0.00 0.00
7:19 pm 19:19 Mostly Cloudy with Mist and Fog 52 11.1 52 11.1 100 100 Calm 30.21 1023 1 2 0.00 0.00
7:23 pm 19:23 Mostly Cloudy with Fog 51 10.6 51 10.6 100 100 Calm 30.21 1023 1 1 0.00 0.00
7:37 pm 19:37 Partly Cloudy with Mist and Fog 51 10.6 51 10.6 100 100 Calm 30.21 1023 1 2 0.00 0.00
7:40 pm 19:40 Partly Cloudy with Mist and Fog 50 10 50 10 100 100 Calm 30.21 1023 1 1 0.00 0.00
7:44 pm 19:44 Mostly Cloudy with Fog 50 10 50 10 100 100 Calm 30.21 1023 0 0 0.00 0.00
7:49 pm 19:49 Mostly Cloudy with Fog 50 10 50 10 100 100 Calm 30.21 1023 0 0 0.00 0.00
7:53 pm 19:53 Mostly Cloudy with Fog 50 10 50 10 100 100 Calm 30.18 1022 0 0 0.00 0.00
8:05 pm 20:05 Mostly Cloudy 49 9.4 49 9.4 100 100 Calm 30.21 1023 10 16 0.00 0.00
8:53 pm 20:53 Mostly Cloudy 49 9.4 49 9.4 100 100 Calm 30.19 1022 10 16 0.00 0.00
9:03 pm 21:03 Mostly Clear 48 8.9 48 8.9 100 100 W 3 6 30.21 1023 3 5 0.00 0.00
9:10 pm 21:10 Clear 48 8.9 48 8.9 100 100 Calm 30.21 1023 3 4 0.00 0.00
9:19 pm 21:19 Clear with Mist and Fog 47 8.3 47 8.3 100 100 Calm 30.21 1023 4 6 0.00 0.00
9:39 pm 21:39 Mostly Clear with Mist and Fog 50 10 50 10 100 100 SW 6 9 30.21 1023 4 6 0.00 0.00
9:53 pm 21:53 Mostly Clear with Mist and Fog 52 11.1 52 11.1 100 100 SSW 6 9 30.19 1022 4 6 0.00 0.00
10:21 pm 22:21 Mostly Cloudy with Mist and Fog 52 11.1 52 11.1 100 100 Calm 30.21 1023 3 4 0.00 0.00
10:31 pm 22:31 Mostly Cloudy with Mist and Fog 52 11.1 52 11.1 100 100 SW 5 7 30.21 1023 1 2 0.00 0.00
10:37 pm 22:37 Cloudy with Fog 52 11.1 52 11.1 100 100 SSW 5 7 30.21 1023 1 1 0.00 0.00
10:53 pm 22:53 Mostly Cloudy with Fog 52 11.1 52 11.1 100 100 SSW 6 9 30.19 1023 1 1 0.00 0.00
11:53 pm 23:53 Mostly Cloudy with Fog 52 11.1 52 11.1 100 100 SW 5 7 30.19 1022 1 1 0.00 0.00

Powered by AerisWeather